Regional Weather Roundup
Issued by NWS New Orleans/Baton Rouge, LA

Home | Current Version | Previous Version | Graphics & Text | Print | Product List | Glossary On
Versions: 1 2 3 4 5 6 7 8 9 10 11 12 13 14 15 16 17 18 19 20 21 22 23 24 25 26 27 28 29 30 31 32 33 34 35 36 37 38 39 40 41 42 43 44 45 46 47 48 49 50
903
ASUS44 KLIX 222205
RWRLIX
NEW ORLEANS REGIONAL WEATHER ROUNDUP
NATIONAL WEATHER SERVICE NEW ORLEANS LA
500 PM CDT TUE APR 22 2014

NOTE: "FAIR" INDICATES FEW OR NO CLOUDS BELOW 12,000 FEET WITH NO
      SIGNIFICANT WEATHER AND/OR OBSTRUCTIONS TO VISIBILITY.
      SKY/WX - SKY CONDITION AND SIGNIFICANT WEATHER.
      TMP - AIR TEMPERATURE.     DP    - DEWPOINT TEMPERATURE.
      RH  - RELATIVE HUMIDITY.   PRES  - PRESSURE.
      HI  - HEAT INDEX.          WCI   - WIND CHILL INDEX.

*  THESE STATIONS ARE NOT NWS OR FAA STATIONS AND ARE NOT UNDER
   NWS QUALITY CONTROL.

LAZ038-040-048-061>063-065>067-069-222300-
SOUTHEAST LOUISIANA

CITY           SKY/WX    TMP DP  RH WIND       PRES   REMARKS
N.O. AUDUBON     N/A     77  67  71 MISG        N/A
N.O. INTL ARPT PTSUNNY   76  67  73 SW9       29.89F
N.O. LAKEFRONT PTSUNNY   73  66  78 W7        29.90F
N.O. DOWNTOWN* MOCLDY    79  63  57 SW7       29.90F
SLIDELL        MOSUNNY   76  64  66 W8        29.88S
BATON ROUGE    PTSUNNY   80  60  50 NW9       29.91S
BOOTHVILLE     CLOUDY    72  67  84 W13       29.91F
BELLE CHASSE   MOSUNNY   75  65  70 W6        29.89F
BOGALUSA*        N/A     77  63  61 NW8       29.90S
GALLIANO*      CLOUDY    78  66  65 SW10      29.91S
NEW ROADS*     CLOUDY    76  60  57 N6        29.92S
GONZALES*      MOCLDY    78  62  57 NW6       29.90S
HAMMOND*       CLOUDY    79  59  50 NW7       29.91S
HOUMA*         MOSUNNY   75  64  69 SW12      29.91F
PORT FOURCHON* PTCLDY    75  68  78 W14       29.93F

$$

MSZ070-080>082-222300-
SOUTHERN MISSISSIPPI

CITY           SKY/WX    TMP DP  RH WIND       PRES   REMARKS
MCCOMB         CLOUDY    76  61  59 N7        29.91S
GULFPORT       MOSUNNY   76  65  68 S7        29.87F
BILOXI         LGT RAIN  72  66  83 SW9       29.88S
PASCAGOULA     CLOUDY    75  64  68 N3        29.87F
STENNIS ARPT*  PTSUNNY   77  63  61 W8        29.88F

$$

COASTAL OBSERVATIONS
LAKE AND NEARSHORE STATIONS

STATION/POSITION TIME  TEMP    WIND        PRES    WAVE
                       AIR SEA DIR/SP/G            HT/PER
                 (UTC) (F)     (DEG/KT/KT) (MB)    (FT/S)
PASCAGOULA       2200   73     250/  9/ 11 1011.3
WAVELAND YACHT   2200   74 72  200/  9/ 12 1010.9
GRAND ISLE       2200   73 72  270/ 12/ 14 1013.3
SOUTHWEST PASS   2200   70 61  280/ 14/ 18 1013.4
NEW CANAL        2200   76 69  270/  3/  5 1012.7
SHELL BEACH      2200   73 67  230/  9/ 10 1012.2

OFFSHORE STATIONS

STATION/POSITION TIME  TEMP    WIND        PRES    WAVE
                       AIR SEA DIR/SP/G            HT/PER
                 (UTC) (F)     (DEG/KT/KT) (MB)    (FT/S)
64 S DAUPHIN ISL 2118   69 71  260/ 12/ 12 1013.1

$$




USA.gov is the U.S. government's official web portal to all federal, state and local government web resources and services.